RYR8WA EGSS-LOWW

Flight info

Callsign RYR8WA
Flight time 1h 46m
Altitude 37000
Route CLN M84 KONAN UL607 KOK DCT MATUG DCT GUBAX DCT BARSU DCT EKSOS DCT LULAR DCT RUDAP DCT BUDEX BUDEX2W
Aircraft A320/M-SDE3FGHIRWY/LB1

Departure

Time 2026-04-21 19:05
Airport London Stansted Airport (EGSS)

Arrival

Time 2026-04-21 20:52
Airport Vienna International Airport (LOWW)
Time Latitude Longitude Altitude Speed Heading
2026-04-21 18:40 51.89112 0.25579 362 ft 0 kts 42°
2026-04-21 18:42 51.89112 0.25578 362 ft 0 kts 42°
2026-04-21 18:53 51.89107 0.25571 352 ft 2 kts 42°
2026-04-21 18:53 51.89092 0.25549 362 ft 3 kts 42°
2026-04-21 18:54 51.89079 0.25530 357 ft 3 kts 17°
2026-04-21 18:54 51.89063 0.25531 356 ft 3 kts 327°
2026-04-21 18:54 51.89053 0.25543 357 ft 1 kts 313°
2026-04-21 18:54 51.89043 0.25561 358 ft 1 kts 313°
2026-04-21 18:55 51.89042 0.25563 358 ft 0 kts 313°
2026-04-21 18:58 51.89042 0.25562 358 ft 1 kts 313°
2026-04-21 18:58 51.89051 0.25547 358 ft 3 kts 313°
2026-04-21 18:58 51.89070 0.25515 358 ft 5 kts 313°
2026-04-21 18:59 51.89111 0.25442 362 ft 12 kts 313°
2026-04-21 18:59 51.89169 0.25336 352 ft 12 kts 297°
2026-04-21 18:59 51.89135 0.25217 352 ft 13 kts 222°
2026-04-21 18:59 51.89064 0.25109 352 ft 15 kts 222°
2026-04-21 19:00 51.88983 0.24989 355 ft 17 kts 223°
2026-04-21 19:00 51.88894 0.24855 357 ft 18 kts 223°
2026-04-21 19:00 51.88796 0.24709 352 ft 20 kts 223°
2026-04-21 19:00 51.88685 0.24541 352 ft 24 kts 223°
2026-04-21 19:01 51.88558 0.24351 345 ft 24 kts 223°
2026-04-21 19:01 51.88441 0.24175 344 ft 24 kts 223°
2026-04-21 19:01 51.88315 0.23986 350 ft 25 kts 223°
2026-04-21 19:01 51.88178 0.23780 342 ft 29 kts 223°
2026-04-21 19:02 51.88038 0.23572 340 ft 27 kts 223°
2026-04-21 19:02 51.87900 0.23363 339 ft 26 kts 223°
2026-04-21 19:02 51.87768 0.23167 340 ft 20 kts 223°
2026-04-21 19:02 51.87748 0.23006 337 ft 12 kts 310°
2026-04-21 19:03 51.87796 0.22921 340 ft 9 kts 312°
2026-04-21 19:03 51.87849 0.22828 332 ft 14 kts 313°
2026-04-21 19:03 51.87928 0.22694 332 ft 14 kts 320°
2026-04-21 19:03 51.87991 0.22716 329 ft 0 kts 41°
2026-04-21 19:04 51.88000 0.22728 329 ft 8 kts 41°
2026-04-21 19:04 51.88216 0.23052 334 ft 75 kts 43°
2026-04-21 19:04 51.88735 0.23835 342 ft 126 kts 43°
2026-04-21 19:05 51.89446 0.24892 653 ft 135 kts 42°
2026-04-21 19:05 51.90097 0.25831 1429 ft 116 kts 43°
2026-04-21 19:05 51.90757 0.26658 1733 ft 127 kts 39°
2026-04-21 19:05 51.91503 0.27517 2037 ft 136 kts 51°
2026-04-21 19:06 51.91858 0.29093 2062 ft 166 kts 83°
2026-04-21 19:06 51.91761 0.31102 2277 ft 194 kts 100°
2026-04-21 19:06 51.91197 0.33264 2610 ft 222 kts 112°
2026-04-21 19:06 51.90482 0.35590 3196 ft 236 kts 112°
2026-04-21 19:07 51.89760 0.38014 3857 ft 243 kts 112°
2026-04-21 19:07 51.89033 0.40484 4762 ft 244 kts 112°
2026-04-21 19:07 51.88300 0.42985 5623 ft 248 kts 113°
2026-04-21 19:07 51.87557 0.45519 6464 ft 251 kts 113°
2026-04-21 19:08 51.86802 0.48094 7262 ft 254 kts 113°
2026-04-21 19:08 51.86037 0.50700 8036 ft 258 kts 113°
2026-04-21 19:08 51.85262 0.53336 8828 ft 262 kts 113°
2026-04-21 19:08 51.84475 0.56014 9607 ft 265 kts 114°
2026-04-21 19:09 51.83681 0.58724 10377 ft 268 kts 112°
2026-04-21 19:09 51.83110 0.61599 11047 ft 271 kts 99°
2026-04-21 19:09 51.82958 0.64643 11704 ft 274 kts 87°
2026-04-21 19:09 51.83078 0.67781 11952 ft 294 kts 86°
2026-04-21 19:10 51.83218 0.71200 12158 ft 313 kts 86°
2026-04-21 19:10 51.83364 0.74762 12702 ft 320 kts 86°
2026-04-21 19:10 51.83508 0.78379 13321 ft 325 kts 86°
2026-04-21 19:10 51.83651 0.82052 13968 ft 329 kts 86°
2026-04-21 19:11 51.83790 0.85757 14587 ft 331 kts 86°
2026-04-21 19:11 51.83931 0.89507 15142 ft 336 kts 86°
2026-04-21 19:11 51.84074 0.93299 15699 ft 339 kts 86°
2026-04-21 19:11 51.84216 0.97127 16283 ft 342 kts 86°
2026-04-21 19:12 51.84309 0.99726 16700 ft 343 kts 86°
2026-04-21 19:12 51.84493 1.04864 17454 ft 347 kts 85°
2026-04-21 19:12 51.84422 1.08781 18065 ft 351 kts 97°
2026-04-21 19:12 51.83781 1.12616 18582 ft 358 kts 111°
2026-04-21 19:13 51.82539 1.16144 19035 ft 366 kts 126°
2026-04-21 19:13 51.80737 1.19095 19516 ft 374 kts 140°
2026-04-21 19:13 51.78562 1.21482 19893 ft 383 kts 144°
2026-04-21 19:13 51.76314 1.23868 20288 ft 389 kts 144°
2026-04-21 19:14 51.74035 1.26280 20738 ft 394 kts 144°
2026-04-21 19:14 51.71726 1.28721 21196 ft 399 kts 144°
2026-04-21 19:14 51.69392 1.31187 21656 ft 403 kts 144°
2026-04-21 19:14 51.66999 1.33562 22146 ft 407 kts 150°
2026-04-21 19:15 51.64367 1.35333 22533 ft 414 kts 162°
2026-04-21 19:15 51.61552 1.36308 23102 ft 414 kts 173°
2026-04-21 19:15 51.58662 1.36572 23585 ft 417 kts 179°
2026-04-21 19:15 51.55745 1.36726 23972 ft 421 kts 179°
2026-04-21 19:16 51.52801 1.36901 24350 ft 425 kts 179°
2026-04-21 19:16 51.49834 1.37156 24686 ft 430 kts 175°
2026-04-21 19:16 51.46890 1.38122 25012 ft 436 kts 163°
2026-04-21 19:16 51.44070 1.39977 25329 ft 441 kts 152°
2026-04-21 19:17 51.39287 1.46166 26021 ft 445 kts 128°
2026-04-21 19:17 51.37393 1.50074 26408 ft 446 kts 126°
2026-04-21 19:17 51.36135 1.52697 26624 ft 449 kts 126°
2026-04-21 19:18 51.34219 1.56667 26917 ft 453 kts 126°
2026-04-21 19:18 51.32282 1.60667 27185 ft 457 kts 126°
2026-04-21 19:18 51.29663 1.66058 27364 ft 468 kts 126°
2026-04-21 19:18 51.27650 1.70191 27598 ft 473 kts 126°
2026-04-21 19:19 51.26280 1.73003 27773 ft 476 kts 126°
2026-04-21 19:19 51.24240 1.77190 28050 ft 480 kts 126°
2026-04-21 19:19 51.22184 1.81403 28330 ft 484 kts 126°
2026-04-21 19:19 51.20104 1.85650 28609 ft 487 kts 126°
2026-04-21 19:20 51.18007 1.89929 28883 ft 491 kts 126°
2026-04-21 19:20 51.16013 1.94327 29338 ft 488 kts 119°
2026-04-21 19:20 51.14436 1.99016 29694 ft 486 kts 110°
2026-04-21 19:20 51.13275 2.04127 29978 ft 484 kts 100°
2026-04-21 19:21 51.12613 2.09287 30244 ft 481 kts 91°
2026-04-21 19:21 51.12311 2.14578 30504 ft 481 kts 89°
2026-04-21 19:21 51.12036 2.19884 30889 ft 480 kts 89°
2026-04-21 19:21 51.11751 2.25175 31302 ft 479 kts 89°
2026-04-21 19:22 51.11460 2.30432 31724 ft 477 kts 90°
2026-04-21 19:22 51.11163 2.35696 32150 ft 476 kts 90°
2026-04-21 19:22 51.10865 2.40919 32665 ft 472 kts 90°
2026-04-21 19:22 51.10567 2.46093 33188 ft 468 kts 90°
2026-04-21 19:23 51.10269 2.51244 33640 ft 466 kts 91°
2026-04-21 19:23 51.09974 2.56368 34071 ft 465 kts 91°
2026-04-21 19:23 51.09681 2.61476 34440 ft 463 kts 91°
2026-04-21 19:23 51.09230 2.66566 34748 ft 466 kts 99°
2026-04-21 19:24 51.08429 2.71575 35043 ft 467 kts 101°
2026-04-21 19:24 51.07601 2.76569 35331 ft 466 kts 101°
2026-04-21 19:24 51.06773 2.81545 35616 ft 465 kts 102°
2026-04-21 19:24 51.05947 2.86511 35948 ft 464 kts 102°
2026-04-21 19:25 51.05125 2.91458 36292 ft 461 kts 102°
2026-04-21 19:25 51.04306 2.96386 36580 ft 460 kts 102°
2026-04-21 19:25 51.03488 3.01294 36848 ft 459 kts 102°
2026-04-21 19:25 51.02668 3.06200 37098 ft 459 kts 102°
2026-04-21 19:26 51.01854 3.11028 37246 ft 460 kts 102°
2026-04-21 19:26 51.01021 3.15950 37274 ft 462 kts 102°
2026-04-21 19:26 50.99344 3.25819 37270 ft 464 kts 102°
2026-04-21 19:27 50.97667 3.35698 37267 ft 462 kts 102°
2026-04-21 19:27 50.95983 3.45540 37267 ft 462 kts 103°
2026-04-21 19:28 50.94289 3.55362 37267 ft 462 kts 103°
2026-04-21 19:28 50.92589 3.65189 37272 ft 462 kts 103°
2026-04-21 19:29 50.90878 3.75020 37274 ft 463 kts 103°
2026-04-21 19:29 50.89161 3.84833 37299 ft 462 kts 103°
2026-04-21 19:30 50.87433 3.94635 37299 ft 461 kts 103°
2026-04-21 19:30 50.85698 4.04396 37299 ft 461 kts 103°
2026-04-21 19:31 50.83955 4.14160 37300 ft 460 kts 103°
2026-04-21 19:31 50.82209 4.23904 37296 ft 460 kts 103°
2026-04-21 19:32 50.80456 4.33642 37296 ft 460 kts 103°
2026-04-21 19:32 50.78694 4.43373 37283 ft 461 kts 103°
2026-04-21 19:33 50.76920 4.53117 37271 ft 462 kts 103°
2026-04-21 19:33 50.75136 4.62874 37278 ft 463 kts 103°
2026-04-21 19:34 50.73356 4.72567 37290 ft 463 kts 104°
2026-04-21 19:34 50.71552 4.82313 37297 ft 462 kts 104°
2026-04-21 19:35 50.68831 4.96899 37292 ft 462 kts 104°
2026-04-21 19:36 50.67008 5.06601 37272 ft 461 kts 104°
2026-04-21 19:36 50.65192 5.16290 37306 ft 461 kts 104°
2026-04-21 19:37 50.63362 5.25970 37300 ft 461 kts 104°
2026-04-21 19:37 50.61521 5.35628 37288 ft 460 kts 104°
2026-04-21 19:38 50.59676 5.45274 37287 ft 460 kts 104°
2026-04-21 19:38 50.58139 5.53284 37282 ft 460 kts 104°
2026-04-21 19:39 50.55968 5.64531 37292 ft 459 kts 104°
2026-04-21 19:39 50.54101 5.74129 37286 ft 459 kts 104°
2026-04-21 19:40 50.52229 5.83729 37279 ft 459 kts 104°
2026-04-21 19:40 50.50348 5.93310 37276 ft 459 kts 104°
2026-04-21 19:41 50.48463 6.02885 37256 ft 459 kts 104°
2026-04-21 19:41 50.46571 6.12468 37261 ft 459 kts 105°
2026-04-21 19:42 50.44672 6.22047 37261 ft 460 kts 105°
2026-04-21 19:42 50.42752 6.31618 37250 ft 460 kts 105°
2026-04-21 19:43 50.41333 6.41264 37250 ft 455 kts 94°
2026-04-21 19:43 50.40598 6.51131 37261 ft 456 kts 94°
2026-04-21 19:44 50.39845 6.60997 37257 ft 456 kts 94°
2026-04-21 19:44 50.39073 6.70857 37257 ft 456 kts 94°
2026-04-21 19:45 50.38297 6.80710 37255 ft 455 kts 94°
2026-04-21 19:45 50.37516 6.90559 37263 ft 456 kts 94°
2026-04-21 19:46 50.36731 7.00400 37277 ft 456 kts 95°
2026-04-21 19:46 50.35926 7.10253 37278 ft 455 kts 95°
2026-04-21 19:47 50.35113 7.20077 37266 ft 455 kts 95°
2026-04-21 19:47 50.34297 7.29906 37267 ft 455 kts 95°
2026-04-21 19:48 50.33476 7.39727 37284 ft 455 kts 95°
2026-04-21 19:48 50.32650 7.49534 37273 ft 455 kts 95°
2026-04-21 19:49 50.31812 7.59333 37270 ft 454 kts 95°
2026-04-21 19:49 50.30965 7.69120 37270 ft 454 kts 95°
2026-04-21 19:50 50.30254 7.77244 37270 ft 454 kts 95°
2026-04-21 19:50 50.29254 7.88607 37288 ft 453 kts 95°
2026-04-21 19:51 50.28193 7.98334 37281 ft 454 kts 99°
2026-04-21 19:51 50.26810 8.07963 37275 ft 454 kts 101°
2026-04-21 19:52 50.25366 8.17584 37271 ft 454 kts 100°
2026-04-21 19:52 50.23996 8.27210 37268 ft 454 kts 100°
2026-04-21 19:53 50.22652 8.36841 37280 ft 453 kts 100°
2026-04-21 19:53 50.21308 8.46460 37275 ft 453 kts 100°
2026-04-21 19:54 50.19942 8.56063 37269 ft 453 kts 100°
2026-04-21 19:54 50.18561 8.65645 37262 ft 453 kts 100°
2026-04-21 19:55 50.17175 8.75216 37263 ft 452 kts 100°
2026-04-21 19:55 50.15782 8.84796 37262 ft 452 kts 101°
2026-04-21 19:56 50.14381 8.94356 37255 ft 452 kts 101°
2026-04-21 19:56 50.12978 9.03919 37263 ft 453 kts 101°
2026-04-21 19:57 50.11576 9.13415 37261 ft 453 kts 101°
2026-04-21 19:57 50.10146 9.22969 37273 ft 453 kts 101°
2026-04-21 19:58 50.08709 9.32523 37273 ft 453 kts 101°
2026-04-21 19:58 50.07271 9.42063 37271 ft 452 kts 101°
2026-04-21 19:59 50.05828 9.51595 37265 ft 452 kts 101°
2026-04-21 19:59 50.04378 9.61109 37269 ft 452 kts 101°
2026-04-21 20:00 50.02914 9.70624 37275 ft 452 kts 101°
2026-04-21 20:00 50.01445 9.80112 37276 ft 451 kts 101°
2026-04-21 20:01 49.99976 9.89598 37282 ft 451 kts 101°
2026-04-21 20:01 49.98498 9.99070 37253 ft 452 kts 101°
2026-04-21 20:02 49.97260 10.06956 37271 ft 453 kts 102°
2026-04-21 20:02 49.95515 10.17999 37270 ft 453 kts 102°
2026-04-21 20:03 49.94000 10.27506 37270 ft 453 kts 102°
2026-04-21 20:03 49.92727 10.35460 37272 ft 453 kts 102°
2026-04-21 20:04 49.90694 10.44669 37273 ft 455 kts 110°
2026-04-21 20:04 49.88329 10.53785 37285 ft 456 kts 110°
2026-04-21 20:05 49.85971 10.62897 37278 ft 455 kts 110°
2026-04-21 20:05 49.83607 10.72016 37276 ft 455 kts 110°
2026-04-21 20:06 49.81238 10.81108 37271 ft 456 kts 110°
2026-04-21 20:06 49.78850 10.90199 37270 ft 456 kts 110°
2026-04-21 20:07 49.76455 10.99279 37280 ft 456 kts 110°
2026-04-21 20:07 49.74057 11.08352 37274 ft 456 kts 110°
2026-04-21 20:08 49.71649 11.17420 37271 ft 456 kts 110°
2026-04-21 20:08 49.69235 11.26483 37274 ft 456 kts 110°
2026-04-21 20:09 49.66818 11.35544 37279 ft 456 kts 110°
2026-04-21 20:09 49.64484 11.44569 37269 ft 455 kts 108°
2026-04-21 20:10 49.62539 11.53844 37267 ft 454 kts 104°
2026-04-21 20:10 49.60746 11.63169 37247 ft 454 kts 105°
2026-04-21 20:11 49.58869 11.72466 37232 ft 455 kts 106°
2026-04-21 20:11 49.56900 11.81762 37236 ft 456 kts 107°
2026-04-21 20:12 49.54907 11.91065 37236 ft 457 kts 106°
2026-04-21 20:12 49.52923 12.00371 37240 ft 458 kts 106°
2026-04-21 20:13 49.50943 12.09692 37244 ft 458 kts 106°
2026-04-21 20:13 49.48958 12.19000 37264 ft 458 kts 107°
2026-04-21 20:14 49.46962 12.28305 37262 ft 458 kts 107°
2026-04-21 20:14 49.44952 12.37595 37261 ft 458 kts 107°
2026-04-21 20:15 49.42936 12.46877 37255 ft 458 kts 107°
2026-04-21 20:15 49.40932 12.56103 37255 ft 458 kts 107°
2026-04-21 20:16 49.38908 12.65370 37267 ft 458 kts 107°
2026-04-21 20:16 49.36865 12.74626 37263 ft 458 kts 107°
2026-04-21 20:17 49.34734 12.83835 37256 ft 458 kts 109°
2026-04-21 20:17 49.32460 12.92962 37261 ft 458 kts 109°
2026-04-21 20:18 49.30557 13.00546 37257 ft 458 kts 109°
2026-04-21 20:18 49.27914 13.11213 37257 ft 458 kts 109°
2026-04-21 20:19 49.25662 13.20354 37261 ft 458 kts 109°
2026-04-21 20:19 49.23393 13.29461 37249 ft 458 kts 110°
2026-04-21 20:20 49.20994 13.38492 37253 ft 458 kts 111°
2026-04-21 20:20 49.18522 13.47485 37266 ft 459 kts 111°
2026-04-21 20:21 49.16067 13.56490 37248 ft 459 kts 111°
2026-04-21 20:21 49.13617 13.65508 37241 ft 460 kts 111°
2026-04-21 20:22 49.11159 13.74545 37243 ft 461 kts 111°
2026-04-21 20:22 49.07464 13.88031 37251 ft 462 kts 111°
2026-04-21 20:23 49.06221 13.92554 36870 ft 462 kts 111°
2026-04-21 20:23 49.04981 13.97068 36499 ft 461 kts 111°
2026-04-21 20:23 49.03742 14.01568 36124 ft 459 kts 111°
2026-04-21 20:23 49.02510 14.06033 35766 ft 455 kts 111°
2026-04-21 20:24 49.01286 14.10460 35412 ft 452 kts 111°
2026-04-21 20:24 49.00067 14.14854 35059 ft 448 kts 111°
2026-04-21 20:24 48.98855 14.19208 34712 ft 444 kts 111°
2026-04-21 20:24 48.97651 14.23520 34311 ft 442 kts 111°
2026-04-21 20:25 48.96451 14.27810 33804 ft 439 kts 111°
2026-04-21 20:25 48.95227 14.32053 33292 ft 437 kts 116°
2026-04-21 20:25 48.93642 14.35991 32782 ft 436 kts 126°
2026-04-21 20:25 48.91806 14.39639 32288 ft 433 kts 126°
2026-04-21 20:26 48.89973 14.43260 31810 ft 430 kts 126°
2026-04-21 20:26 48.88151 14.46851 31335 ft 428 kts 126°
2026-04-21 20:26 48.86344 14.50419 30865 ft 425 kts 126°
2026-04-21 20:26 48.84546 14.53970 30407 ft 422 kts 126°
2026-04-21 20:27 48.82762 14.57489 29871 ft 417 kts 126°
2026-04-21 20:27 48.81013 14.60932 29301 ft 407 kts 127°
2026-04-21 20:27 48.79297 14.64307 28761 ft 400 kts 127°
2026-04-21 20:27 48.77615 14.67613 28232 ft 393 kts 127°
2026-04-21 20:28 48.75959 14.70861 27708 ft 386 kts 127°
2026-04-21 20:28 48.74330 14.74049 27207 ft 379 kts 127°
2026-04-21 20:28 48.72729 14.77181 26731 ft 372 kts 127°
2026-04-21 20:28 48.71160 14.80243 26258 ft 365 kts 127°
2026-04-21 20:29 48.69636 14.83216 25814 ft 360 kts 127°
2026-04-21 20:29 48.68083 14.86246 25353 ft 360 kts 126°
2026-04-21 20:29 48.66542 14.89257 24906 ft 364 kts 126°
2026-04-21 20:29 48.65009 14.92250 24465 ft 365 kts 126°
2026-04-21 20:30 48.63454 14.95280 24017 ft 365 kts 127°
2026-04-21 20:30 48.61895 14.98305 23516 ft 365 kts 127°
2026-04-21 20:30 48.60339 15.01333 22982 ft 365 kts 125°
2026-04-21 20:30 48.59031 15.04603 22443 ft 363 kts 113°
2026-04-21 20:31 48.58187 15.08176 21916 ft 360 kts 103°
2026-04-21 20:31 48.57567 15.11839 21404 ft 360 kts 103°
2026-04-21 20:31 48.56944 15.15494 20898 ft 359 kts 103°
2026-04-21 20:31 48.56317 15.19145 20398 ft 358 kts 103°
2026-04-21 20:32 48.55690 15.22779 19917 ft 358 kts 103°
2026-04-21 20:32 48.55064 15.26399 19459 ft 356 kts 103°
2026-04-21 20:32 48.54437 15.30010 19013 ft 354 kts 103°
2026-04-21 20:32 48.53814 15.33591 18576 ft 352 kts 103°
2026-04-21 20:33 48.53192 15.37152 18086 ft 350 kts 103°
2026-04-21 20:33 48.52572 15.40695 17579 ft 348 kts 103°
2026-04-21 20:33 48.52014 15.44240 17108 ft 345 kts 96°
2026-04-21 20:33 48.51804 15.47790 16845 ft 336 kts 92°
2026-04-21 20:34 48.51617 15.51272 16575 ft 329 kts 93°
2026-04-21 20:34 48.51426 15.54678 16318 ft 322 kts 93°
2026-04-21 20:34 48.51232 15.58018 16041 ft 317 kts 93°
2026-04-21 20:34 48.51026 15.61304 15777 ft 314 kts 97°
2026-04-21 20:35 48.50374 15.64432 15522 ft 315 kts 113°
2026-04-21 20:35 48.49449 15.67372 15271 ft 314 kts 114°
2026-04-21 20:35 48.48506 15.70339 15017 ft 313 kts 114°
2026-04-21 20:35 48.47566 15.73290 14770 ft 312 kts 114°
2026-04-21 20:36 48.46626 15.76233 14523 ft 311 kts 114°
2026-04-21 20:36 48.45686 15.79162 14273 ft 310 kts 114°
2026-04-21 20:36 48.44751 15.82078 14027 ft 309 kts 114°
2026-04-21 20:36 48.43818 15.84988 13754 ft 308 kts 114°
2026-04-21 20:37 48.42890 15.87881 13471 ft 306 kts 114°
2026-04-21 20:37 48.41964 15.90760 13203 ft 305 kts 114°
2026-04-21 20:37 48.41040 15.93630 12929 ft 304 kts 114°
2026-04-21 20:37 48.40120 15.96489 12664 ft 303 kts 114°
2026-04-21 20:38 48.39203 15.99329 12396 ft 301 kts 114°
2026-04-21 20:38 48.38287 16.02160 12129 ft 300 kts 114°
2026-04-21 20:38 48.37388 16.04943 11866 ft 298 kts 114°
2026-04-21 20:38 48.36483 16.07747 11605 ft 297 kts 113°
2026-04-21 20:39 48.35580 16.10537 11352 ft 296 kts 113°
2026-04-21 20:39 48.34680 16.13313 11092 ft 295 kts 114°
2026-04-21 20:39 48.33779 16.16085 10851 ft 294 kts 114°
2026-04-21 20:39 48.32879 16.18845 10589 ft 293 kts 114°
2026-04-21 20:40 48.31983 16.21589 10336 ft 292 kts 114°
2026-04-21 20:40 48.31093 16.24323 10090 ft 290 kts 114°
2026-04-21 20:40 48.30211 16.27036 9813 ft 288 kts 113°
2026-04-21 20:40 48.29335 16.29724 9537 ft 286 kts 113°
2026-04-21 20:41 48.28462 16.32397 9265 ft 284 kts 114°
2026-04-21 20:41 48.27591 16.35054 8990 ft 282 kts 114°
2026-04-21 20:41 48.26726 16.37690 8725 ft 281 kts 114°
2026-04-21 20:41 48.25865 16.40316 8454 ft 279 kts 113°
2026-04-21 20:42 48.25010 16.42925 8196 ft 278 kts 113°
2026-04-21 20:42 48.24158 16.45520 7933 ft 276 kts 114°
2026-04-21 20:42 48.23309 16.48097 7681 ft 275 kts 114°
2026-04-21 20:42 48.22463 16.50667 7425 ft 274 kts 114°
2026-04-21 20:43 48.21622 16.53217 7180 ft 273 kts 114°
2026-04-21 20:43 48.20782 16.55756 6919 ft 271 kts 114°
2026-04-21 20:43 48.19958 16.58255 6668 ft 270 kts 114°
2026-04-21 20:43 48.19128 16.60770 6410 ft 269 kts 114°
2026-04-21 20:44 48.18299 16.63278 6056 ft 269 kts 114°
2026-04-21 20:44 48.17459 16.65822 5687 ft 269 kts 114°
2026-04-21 20:44 48.16644 16.68298 5328 ft 268 kts 113°
2026-04-21 20:44 48.15820 16.70801 4969 ft 268 kts 113°
2026-04-21 20:45 48.14997 16.73295 4649 ft 266 kts 113°
2026-04-21 20:45 48.14180 16.75766 4328 ft 263 kts 113°
2026-04-21 20:45 48.13370 16.78212 4013 ft 261 kts 113°
2026-04-21 20:45 48.12566 16.80640 3697 ft 259 kts 112°
2026-04-21 20:46 48.11766 16.83050 3392 ft 258 kts 112°
2026-04-21 20:46 48.10961 16.85444 3089 ft 257 kts 115°
2026-04-21 20:46 48.09813 16.87448 2994 ft 253 kts 140°
2026-04-21 20:46 48.08260 16.88526 2983 ft 243 kts 165°
2026-04-21 20:47 48.06578 16.88547 2987 ft 245 kts 191°
2026-04-21 20:47 48.04966 16.87450 3006 ft 267 kts 219°
2026-04-21 20:47 48.03808 16.85299 3006 ft 267 kts 249°
2026-04-21 20:47 48.03425 16.82637 3006 ft 261 kts 275°
2026-04-21 20:48 48.03636 16.79974 2998 ft 252 kts 290°
2026-04-21 20:48 48.04296 16.77676 3003 ft 233 kts 301°
2026-04-21 20:48 48.05021 16.75535 3009 ft 229 kts 302°
2026-04-21 20:48 48.05714 16.73481 3003 ft 214 kts 301°
2026-04-21 20:49 48.06352 16.71511 2785 ft 209 kts 301°
2026-04-21 20:49 48.06767 16.70225 2574 ft 207 kts 301°
2026-04-21 20:49 48.07391 16.68308 2267 ft 203 kts 301°
2026-04-21 20:49 48.08002 16.66438 1977 ft 195 kts 301°
2026-04-21 20:50 48.08572 16.64692 1738 ft 179 kts 301°
2026-04-21 20:50 48.09101 16.63077 1484 ft 168 kts 302°
2026-04-21 20:50 48.09613 16.61564 1278 ft 158 kts 299°
2026-04-21 20:50 48.10045 16.60127 1062 ft 146 kts 297°
2026-04-21 20:51 48.10475 16.58797 840 ft 138 kts 300°
2026-04-21 20:51 48.10910 16.57541 650 ft 135 kts 297°
2026-04-21 20:51 48.11299 16.56358 615 ft 107 kts 296°
2026-04-21 20:51 48.11557 16.55572 621 ft 63 kts 297°
2026-04-21 20:52 48.11703 16.55281 616 ft 19 kts 316°
2026-04-21 20:52 48.11783 16.55173 609 ft 15 kts 322°
2026-04-21 20:52 48.11878 16.55170 620 ft 14 kts 59°
2026-04-21 20:52 48.11847 16.55317 610 ft 16 kts 115°
2026-04-21 20:53 48.11793 16.55482 612 ft 18 kts 116°
2026-04-21 20:53 48.11817 16.55600 615 ft 14 kts 55°
2026-04-21 20:53 48.11812 16.55706 617 ft 4 kts 116°
2026-04-21 20:53 48.11795 16.55759 619 ft 7 kts 115°
2026-04-21 20:54 48.11800 16.55835 609 ft 7 kts 89°